Date String (YYYY-MM-DD hh:mm:ss) UTC,Instrument flags,Ambient pressure (hPa),Sample flow (lpm),Bypass flow (lpm),Sample temperature (°C),Ambient temperature (°C),ASC tube jacket temperature (°C),LED temperature (°C),Box temperature (°C),Sample RH (%),Span deviation,Mass concentration (μg/m³),Mass concentration (μg/m³),Mass concentration (μg/m³)
DateTimeUTC,F1_M11,P_M11,Q1_M11,Q2_M11,T1_M11,T2_M11,T3_M11,T4_M11,T5_M11,U1_M11,ZSPAN_M11,X0_M11,X2_M11,X1_M11
2022-10-03 11:00:00,,0829.0,4.98,0.00,30.0,28.7,00.0,38.8,31.9,21.1,0000.0,0006.54,0003.73,0003.45
2022-10-03 11:01:00,,0829.0,5.01,0.00,30.0,28.7,00.0,38.8,31.9,21.2,0000.0,0006.54,0003.69,0003.44
2022-10-03 11:02:00,,0829.0,4.98,0.00,30.0,28.6,00.0,38.8,31.9,21.2,0000.0,0006.40,0003.66,0003.44
2022-10-03 11:03:00,,0829.1,5.02,0.00,30.0,28.6,00.0,38.8,31.9,21.1,0000.0,0006.40,0003.66,0003.43
2022-10-03 11:04:00,,0829.0,4.98,0.00,30.0,28.7,00.0,38.8,31.9,21.2,0000.0,0006.32,0003.64,0003.43
2022-10-03 11:05:00,,0829.1,5.01,0.00,30.0,28.6,00.0,38.8,31.9,21.1,0000.0,0006.14,0003.64,0003.43
2022-10-03 11:06:00,,0829.0,5.01,0.00,30.0,28.6,00.0,38.8,31.9,21.1,0000.0,0005.88,0003.63,0003.42
2022-10-03 11:07:00,,0829.1,4.99,0.00,30.0,28.6,00.0,38.8,31.9,21.1,0000.0,0005.98,0003.63,0003.41
2022-10-03 11:08:00,,0829.1,5.00,0.00,30.0,28.6,00.0,38.8,31.9,21.1,0000.0,0005.96,0003.63,0003.40
2022-10-03 11:09:00,,0829.1,5.00,0.00,30.0,28.6,00.0,38.8,31.9,21.1,0000.0,0005.97,0003.62,0003.39
2022-10-03 11:10:00,,0829.2,5.00,0.00,30.0,28.6,00.0,38.8,31.9,21.0,0000.0,0006.04,0003.63,0003.39
2022-10-03 11:11:00,,0829.2,5.00,0.00,30.0,28.6,00.0,38.8,31.9,21.0,0000.0,0005.54,0003.63,0003.39
2022-10-03 11:12:00,,0829.2,5.01,0.00,30.0,28.6,00.0,38.8,31.9,20.9,0000.0,0005.54,0003.65,0003.39
2022-10-03 11:13:00,,0829.2,4.99,0.00,30.0,28.6,00.0,38.8,31.9,20.9,0000.0,0005.69,0003.68,0003.38
2022-10-03 11:14:00,,0829.2,5.01,0.00,30.0,28.6,00.0,38.8,31.8,20.8,0000.0,0005.61,0003.65,0003.37
2022-10-03 11:15:00,,0829.3,5.00,0.00,30.0,28.6,00.0,38.8,31.9,20.7,0000.0,0005.66,0003.65,0003.36
2022-10-03 11:16:00,,0829.3,4.99,0.00,30.0,28.6,00.0,38.8,31.9,20.5,0000.0,0005.73,0003.64,0003.33
2022-10-03 11:17:00,,0829.3,5.01,0.00,30.0,28.6,00.0,38.8,31.9,21.0,0000.0,0005.72,0003.63,0003.32
2022-10-03 11:18:00,,0829.2,5.01,0.00,30.0,28.6,00.0,38.8,31.9,21.2,0000.0,0005.64,0003.61,0003.30
2022-10-03 11:19:00,,0829.3,4.99,0.00,30.0,28.6,00.0,38.8,31.9,21.2,0000.0,0005.81,0003.59,0003.29
2022-10-03 11:20:00,,0829.2,5.00,0.00,30.0,28.6,00.0,38.8,31.9,21.3,0000.0,0005.89,0003.60,0003.28
2022-10-03 11:21:00,,0829.3,5.01,0.00,30.0,28.6,00.0,38.8,31.9,21.2,0000.0,0005.89,0003.59,0003.27
2022-10-03 11:22:00,,0829.2,4.99,0.00,30.0,28.6,00.0,38.8,31.8,20.9,0000.0,0005.91,0003.58,0003.25
2022-10-03 11:23:00,,0829.3,5.01,0.00,30.0,28.6,00.0,38.8,31.9,20.8,0000.0,0005.83,0003.54,0003.23
2022-10-03 11:24:00,,0829.3,4.99,0.00,30.0,28.6,00.0,38.8,31.9,20.5,0000.0,0005.70,0003.51,0003.22
2022-10-03 11:25:00,,0829.2,5.00,0.00,30.0,28.6,00.0,38.8,31.9,20.5,0000.0,0005.86,0003.51,0003.21
2022-10-03 11:26:00,,0829.3,5.01,0.00,30.0,28.6,00.0,38.8,31.9,20.2,0000.0,0006.44,0003.48,0003.20
2022-10-03 11:27:00,,0829.3,4.99,0.00,30.0,28.6,00.0,38.8,31.9,20.0,0000.0,0006.95,0003.46,0003.19
2022-10-03 11:28:00,,0829.3,4.99,0.00,30.0,28.6,00.0,38.8,31.8,20.2,0000.0,0006.80,0003.44,0003.18
2022-10-03 11:29:00,,0829.3,4.99,0.00,30.0,28.6,00.0,38.8,31.9,20.2,0000.0,0006.66,0003.41,0003.16
2022-10-03 11:30:00,,0829.3,5.01,0.00,30.0,28.6,00.0,38.8,31.8,19.8,0000.0,0006.33,0003.37,0003.13
2022-10-03 11:31:00,,0829.2,5.00,0.00,30.0,28.6,00.0,38.8,31.8,19.5,0000.0,0006.12,0003.30,0003.07
2022-10-03 11:32:00,,0829.2,5.00,0.00,30.0,28.6,00.0,38.8,31.8,19.4,0000.0,0005.91,0003.23,0002.99
2022-10-03 11:33:00,,0829.3,5.01,0.00,30.0,28.6,00.0,38.8,31.8,19.3,0000.0,0005.89,0003.21,0002.92
2022-10-03 11:34:00,,0829.3,4.99,0.00,30.0,28.6,00.0,38.8,31.8,19.3,0000.0,0005.87,0003.18,0002.86
2022-10-03 11:35:00,,0829.2,5.02,0.00,30.0,28.6,00.0,38.8,31.8,19.2,0000.0,0005.76,0003.14,0002.79
2022-10-03 11:36:00,,0829.3,4.99,0.00,30.0,28.6,00.0,38.8,31.8,19.2,0000.0,0005.48,0003.07,0002.72
2022-10-03 11:37:00,,0829.3,5.00,0.00,30.0,28.6,00.0,38.8,31.8,19.2,0000.0,0004.63,0003.03,0002.67
2022-10-03 11:38:00,,0829.2,5.01,0.00,30.0,28.6,00.0,38.8,31.8,19.2,0000.0,0004.09,0003.03,0002.63
2022-10-03 11:39:00,,0829.2,4.99,0.00,30.0,28.6,00.0,38.8,31.8,19.2,0000.0,0004.12,0003.00,0002.60
2022-10-03 11:40:00,,0829.2,5.01,0.00,30.0,28.6,00.0,38.8,31.8,19.2,0000.0,0004.24,0003.01,0002.56
2022-10-03 11:41:00,,0829.1,5.00,0.00,30.0,28.6,00.0,38.8,31.9,19.2,0000.0,0004.37,0003.01,0002.54
2022-10-03 11:42:00,,0829.1,4.99,0.00,30.0,28.6,00.0,38.8,31.9,19.2,0000.0,0004.28,0003.00,0002.54
2022-10-03 11:43:00,,0829.1,5.00,0.00,30.0,28.6,00.0,38.8,31.8,19.5,0000.0,0004.29,0003.04,0002.57
2022-10-03 11:44:00,,0829.1,5.00,0.00,30.0,28.6,00.0,38.8,31.9,19.4,0000.0,0004.32,0003.06,0002.59
2022-10-03 11:45:00,,0829.1,4.99,0.00,30.0,28.6,00.0,38.8,31.9,19.9,0000.0,0004.32,0003.07,0002.61
2022-10-03 11:46:00,,0829.1,5.01,0.00,30.0,28.6,00.0,38.8,31.9,20.5,0000.0,0004.37,0003.11,0002.63
2022-10-03 11:47:00,,0829.1,5.00,0.00,30.0,28.6,00.0,38.8,31.9,20.3,0000.0,0005.18,0003.16,0002.66
2022-10-03 11:48:00,,0829.1,5.00,0.00,30.0,28.6,00.0,38.8,31.9,20.3,0000.0,0005.58,0003.17,0002.68
2022-10-03 11:49:00,,0829.1,5.00,0.00,30.0,28.6,00.0,38.8,31.9,20.2,0000.0,0005.59,0003.17,0002.69
2022-10-03 11:50:00,,0829.1,5.00,0.00,30.0,28.6,00.0,38.8,31.9,20.1,0000.0,0005.63,0003.16,0002.70
2022-10-03 11:51:00,,0829.0,5.01,0.00,30.1,28.6,00.0,38.8,31.9,20.1,0000.0,0005.44,0003.15,0002.71
2022-10-03 11:52:00,,0829.1,5.00,0.00,30.1,28.7,00.0,38.8,31.9,20.1,0000.0,0005.31,0003.15,0002.75
2022-10-03 11:53:00,,0829.0,5.00,0.00,30.1,28.7,00.0,38.8,31.9,20.1,0000.0,0005.44,0003.19,0002.79
2022-10-03 11:54:00,,0829.0,5.01,0.00,30.1,28.6,00.0,38.8,31.9,20.0,0000.0,0005.58,0003.22,0002.83
2022-10-03 11:55:00,,0829.1,5.00,0.00,30.1,28.7,00.0,38.8,31.9,20.2,0000.0,0005.72,0003.25,0002.86
2022-10-03 11:56:00,,0829.0,4.99,0.00,30.1,28.7,00.0,38.8,31.9,20.1,0000.0,0005.73,0003.26,0002.91
2022-10-03 11:57:00,,0829.1,5.01,0.00,30.1,28.7,00.0,38.8,31.9,20.1,0000.0,0005.72,0003.27,0002.95
2022-10-03 11:58:00,,0829.1,4.99,0.00,30.1,28.7,00.0,38.8,31.9,20.0,0000.0,0005.86,0003.29,0002.98
2022-10-03 11:59:00,,0829.1,5.01,0.00,30.1,28.7,00.0,38.8,31.9,19.8,0000.0,0005.40,0003.31,0003.02
